Data No,UTC Date,UTC Time,Latitude,Longitude,Course(deg),Temp(degC),Sal(psu)
574,2023/1/20,9:33,42-59.20N,144-17.91E,246,2.415,
575,2023/1/20,9:34,42-59.11N,144-17.61E,247,2.533,
576,2023/1/20,9:35,42-59.02N,144-17.30E,248,2.333,
577,2023/1/20,9:36,42-58.91N,144-17.00E,239,2.247,
578,2023/1/20,9:37,42-58.72N,144-16.77E,214,2.103,
579,2023/1/20,9:38,42-58.49N,144-16.58E,211,2.032,
580,2023/1/20,9:39,42-58.25N,144-16.37E,211,2.034,
581,2023/1/20,9:40,42-58.00N,144-16.16E,212,2.054,
582,2023/1/20,9:41,42-57.74N,144-15.94E,212,1.984,
583,2023/1/20,9:42,42-57.48N,144-15.72E,212,1.856,
584,2023/1/20,9:43,42-57.23N,144-15.50E,213,1.8,
585,2023/1/20,9:44,42-56.95N,144-15.26E,213,1.808,
586,2023/1/20,9:45,42-56.70N,144-15.03E,213,1.828,
587,2023/1/20,9:46,42-56.44N,144-14.80E,212,1.85,
588,2023/1/20,9:47,42-56.16N,144-14.56E,213,1.955,
589,2023/1/20,9:48,42-55.90N,144-14.33E,213,1.98,
590,2023/1/20,9:49,42-55.63N,144-14.09E,213,2.007,
591,2023/1/20,9:50,42-55.36N,144-13.85E,213,2.022,
592,2023/1/20,9:51,42-55.10N,144-13.62E,213,2.021,
593,2023/1/20,9:52,42-54.82N,144-13.37E,213,2.027,
594,2023/1/20,9:53,42-54.56N,144-13.14E,213,2.053,
595,2023/1/20,9:54,42-54.29N,144-12.90E,213,2.075,
596,2023/1/20,9:55,42-54.01N,144-12.66E,213,2.097,
597,2023/1/20,9:56,42-53.75N,144-12.42E,213,2.11,
598,2023/1/20,9:57,42-53.48N,144-12.18E,213,2.134,
599,2023/1/20,9:58,42-53.20N,144-11.94E,212,2.176,
600,2023/1/20,9:59,42-52.94N,144-11.70E,213,2.187,
601,2023/1/20,10:00,42-52.67N,144-11.46E,213,2.198,
602,2023/1/20,10:01,42-52.41N,144-11.23E,213,2.195,
603,2023/1/20,10:02,42-52.13N,144-10.99E,213,2.198,
604,2023/1/20,10:03,42-51.86N,144-10.74E,213,2.195,
605,2023/1/20,10:04,42-51.60N,144-10.51E,211,2.204,
606,2023/1/20,10:05,42-51.31N,144-10.30E,209,2.216,
607,2023/1/20,10:06,42-51.00N,144-10.07E,208,2.22,
608,2023/1/20,10:07,42-50.76N,144-09.88E,209,2.234,
609,2023/1/20,10:08,42-50.48N,144-09.67E,209,2.245,
610,2023/1/20,10:09,42-50.15N,144-09.42E,209,2.24,
611,2023/1/20,10:10,42-49.88N,144-09.19E,210,2.216,
612,2023/1/20,10:11,42-49.61N,144-08.98E,210,2.207,
613,2023/1/20,10:12,42-49.32N,144-08.75E,210,2.205,
614,2023/1/20,10:13,42-49.08N,144-08.58E,209,2.251,
615,2023/1/20,10:14,42-48.80N,144-08.36E,209,2.281,
616,2023/1/20,10:15,42-48.51N,144-08.15E,209,2.283,
617,2023/1/20,10:16,42-48.23N,144-07.94E,209,2.29,
618,2023/1/20,10:17,42-47.94N,144-07.71E,209,2.293,
619,2023/1/20,10:18,42-47.67N,144-07.50E,209,2.364,
620,2023/1/20,10:19,42-47.38N,144-07.28E,209,2.4,
621,2023/1/20,10:20,42-47.09N,144-07.06E,209,2.409,
622,2023/1/20,10:21,42-46.81N,144-06.85E,209,2.39,
623,2023/1/20,10:22,42-46.51N,144-06.62E,209,2.374,
624,2023/1/20,10:23,42-46.25N,144-06.41E,209,2.375,
625,2023/1/20,10:24,42-45.96N,144-06.19E,209,2.358,
626,2023/1/20,10:25,42-45.67N,144-05.98E,209,2.358,
627,2023/1/20,10:26,42-45.39N,144-05.76E,209,2.343,
628,2023/1/20,10:27,42-45.11N,144-05.54E,209,2.337,
629,2023/1/20,10:28,42-44.83N,144-05.33E,209,2.332,
630,2023/1/20,10:29,42-44.54N,144-05.11E,209,2.327,
631,2023/1/20,10:30,42-44.25N,144-04.88E,209,2.347,
632,2023/1/20,10:31,42-43.97N,144-04.67E,209,2.302,
633,2023/1/20,10:32,42-43.69N,144-04.45E,209,2.288,
634,2023/1/20,10:33,42-43.41N,144-04.23E,209,2.266,
635,2023/1/20,10:34,42-43.13N,144-04.01E,209,2.26,
636,2023/1/20,10:35,42-42.84N,144-03.79E,209,2.258,
637,2023/1/20,10:36,42-42.57N,144-03.58E,209,2.266,
638,2023/1/20,10:37,42-42.27N,144-03.36E,209,2.267,
639,2023/1/20,10:38,42-41.98N,144-03.13E,210,2.276,
640,2023/1/20,10:39,42-41.71N,144-02.92E,210,2.307,
641,2023/1/20,10:40,42-41.41N,144-02.69E,209,2.342,
642,2023/1/20,10:41,42-41.14N,144-02.48E,209,2.388,
643,2023/1/20,10:42,42-40.86N,144-02.26E,210,2.422,
644,2023/1/20,10:43,42-40.57N,144-02.04E,210,2.424,
645,2023/1/20,10:44,42-40.28N,144-01.81E,209,2.507,
646,2023/1/20,10:45,42-40.00N,144-01.59E,210,2.536,
647,2023/1/20,10:46,42-39.72N,144-01.37E,210,2.572,
648,2023/1/20,10:47,42-39.44N,144-01.15E,209,2.604,
649,2023/1/20,10:48,42-39.15N,144-00.93E,209,2.624,
650,2023/1/20,10:49,42-38.85N,144-00.70E,209,2.618,
651,2023/1/20,10:50,42-38.58N,144-00.48E,209,2.622,
652,2023/1/20,10:51,42-38.30N,144-00.27E,209,2.617,
653,2023/1/20,10:52,42-38.02N,144-00.06E,209,2.616,
654,2023/1/20,10:53,42-37.71N,143-59.82E,209,2.635,
655,2023/1/20,10:54,42-37.45N,143-59.62E,209,2.634,
656,2023/1/20,10:55,42-37.15N,143-59.40E,209,2.61,
657,2023/1/20,10:56,42-36.87N,143-59.18E,209,2.579,
658,2023/1/20,10:57,42-36.59N,143-58.97E,209,2.558,
659,2023/1/20,10:58,42-36.30N,143-58.74E,209,2.542,
660,2023/1/20,10:59,42-36.01N,143-58.53E,209,2.55,
661,2023/1/20,11:00,42-35.73N,143-58.31E,209,2.571,
662,2023/1/20,11:01,42-35.45N,143-58.10E,209,2.628,
663,2023/1/20,11:02,42-35.17N,143-57.89E,209,2.567,
664,2023/1/20,11:03,42-34.88N,143-57.67E,209,2.54,
665,2023/1/20,11:04,42-34.60N,143-57.45E,210,2.537,
666,2023/1/20,11:05,42-34.31N,143-57.23E,209,2.546,
667,2023/1/20,11:06,42-34.03N,143-57.01E,209,2.568,
668,2023/1/20,11:07,42-33.74N,143-56.80E,209,2.548,
669,2023/1/20,11:08,42-33.45N,143-56.58E,209,2.592,
670,2023/1/20,11:09,42-33.17N,143-56.37E,209,2.604,
671,2023/1/20,11:10,42-32.88N,143-56.14E,209,2.638,
672,2023/1/20,11:11,42-32.59N,143-55.92E,209,2.661,
673,2023/1/20,11:12,42-32.32N,143-55.71E,209,2.664,
674,2023/1/20,11:13,42-32.03N,143-55.49E,209,2.7,
675,2023/1/20,11:14,42-31.75N,143-55.28E,209,2.77,
676,2023/1/20,11:15,42-31.46N,143-55.06E,209,2.826,
677,2023/1/20,11:16,42-31.19N,143-54.85E,209,2.829,
678,2023/1/20,11:17,42-30.90N,143-54.63E,209,2.811,
679,2023/1/20,11:18,42-30.61N,143-54.40E,209,2.792,
680,2023/1/20,11:19,42-30.33N,143-54.18E,210,2.697,
681,2023/1/20,11:20,42-30.05N,143-53.95E,210,2.601,
682,2023/1/20,11:21,42-29.75N,143-53.72E,209,2.781,
683,2023/1/20,11:22,42-29.50N,143-53.51E,211,2.885,
684,2023/1/20,11:23,42-29.22N,143-53.28E,212,2.816,
685,2023/1/20,11:24,42-28.95N,143-53.04E,212,2.736,
686,2023/1/20,11:25,42-28.66N,143-52.81E,211,2.725,
687,2023/1/20,11:26,42-28.39N,143-52.59E,211,2.723,
688,2023/1/20,11:27,42-28.10N,143-52.35E,211,2.738,
689,2023/1/20,11:28,42-27.82N,143-52.12E,211,2.747,
690,2023/1/20,11:29,42-27.54N,143-51.90E,210,2.737,
691,2023/1/20,11:30,42-27.24N,143-51.66E,211,2.733,
692,2023/1/20,11:31,42-26.97N,143-51.43E,211,2.739,
693,2023/1/20,11:32,42-26.68N,143-51.20E,211,2.774,
694,2023/1/20,11:33,42-26.40N,143-50.96E,211,2.8,
695,2023/1/20,11:34,42-26.13N,143-50.73E,211,2.796,
696,2023/1/20,11:35,42-25.84N,143-50.49E,212,2.801,
697,2023/1/20,11:36,42-25.56N,143-50.26E,211,2.849,
698,2023/1/20,11:37,42-25.30N,143-50.03E,211,2.829,
699,2023/1/20,11:38,42-25.02N,143-49.80E,211,2.768,
700,2023/1/20,11:39,42-24.74N,143-49.56E,211,2.677,
701,2023/1/20,11:40,42-24.46N,143-49.33E,211,2.67,
702,2023/1/20,11:41,42-24.21N,143-49.11E,212,2.667,
703,2023/1/20,11:42,42-23.93N,143-48.89E,211,2.479,
704,2023/1/20,11:43,42-23.66N,143-48.65E,211,2.437,
705,2023/1/20,11:44,42-23.38N,143-48.42E,212,2.429,
706,2023/1/20,11:45,42-23.10N,143-48.19E,211,2.39,
707,2023/1/20,11:46,42-22.82N,143-47.95E,211,2.381,
708,2023/1/20,11:47,42-22.55N,143-47.73E,212,2.364,
709,2023/1/20,11:48,42-22.28N,143-47.48E,211,2.368,
710,2023/1/20,11:49,42-21.99N,143-47.24E,212,2.364,
711,2023/1/20,11:50,42-21.72N,143-47.01E,211,2.366,
712,2023/1/20,11:51,42-21.44N,143-46.78E,212,2.373,
713,2023/1/20,11:52,42-21.15N,143-46.54E,212,2.365,
714,2023/1/20,11:53,42-20.86N,143-46.30E,212,2.353,
715,2023/1/20,11:54,42-20.59N,143-46.06E,212,2.355,
716,2023/1/20,11:55,42-20.31N,143-45.82E,212,2.36,
717,2023/1/20,11:56,42-20.03N,143-45.58E,212,2.359,
718,2023/1/20,11:57,42-19.75N,143-45.34E,212,2.362,
719,2023/1/20,11:58,42-19.47N,143-45.09E,212,2.361,
720,2023/1/20,11:59,42-19.20N,143-44.85E,212,2.359,
721,2023/1/20,12:00,42-18.91N,143-44.61E,212,2.359,
722,2023/1/20,12:01,42-18.63N,143-44.37E,212,2.354,
723,2023/1/20,12:02,42-18.35N,143-44.12E,212,2.353,
724,2023/1/20,12:03,42-18.06N,143-43.87E,212,2.358,
725,2023/1/20,12:04,42-17.78N,143-43.62E,212,2.362,
726,2023/1/20,12:05,42-17.50N,143-43.38E,212,2.367,
727,2023/1/20,12:06,42-17.22N,143-43.13E,212,2.37,
728,2023/1/20,12:07,42-16.93N,143-42.88E,212,2.37,
729,2023/1/20,12:08,42-16.63N,143-42.62E,212,2.376,
730,2023/1/20,12:09,42-16.36N,143-42.39E,212,2.374,
731,2023/1/20,12:10,42-16.07N,143-42.14E,212,2.373,
732,2023/1/20,12:11,42-15.79N,143-41.89E,212,2.367,
733,2023/1/20,12:12,42-15.50N,143-41.65E,212,2.358,
734,2023/1/20,12:13,42-15.17N,143-41.36E,212,2.339,
735,2023/1/20,12:14,42-14.89N,143-41.12E,212,2.332,
736,2023/1/20,12:15,42-14.59N,143-40.87E,212,2.339,
737,2023/1/20,12:16,42-14.29N,143-40.61E,213,2.333,
738,2023/1/20,12:17,42-14.02N,143-40.37E,213,2.33,
739,2023/1/20,12:18,42-13.72N,143-40.12E,212,2.328,
740,2023/1/20,12:19,42-13.44N,143-39.87E,213,2.329,
741,2023/1/20,12:20,42-13.15N,143-39.62E,212,2.333,
742,2023/1/20,12:21,42-12.86N,143-39.37E,212,2.326,
743,2023/1/20,12:22,42-12.57N,143-39.13E,212,2.317,
744,2023/1/20,12:23,42-12.27N,143-38.89E,212,2.328,
745,2023/1/20,12:24,42-11.99N,143-38.65E,211,2.34,
746,2023/1/20,12:25,42-11.70N,143-38.41E,211,2.345,
747,2023/1/20,12:26,42-11.41N,143-38.17E,211,2.345,
748,2023/1/20,12:27,42-11.12N,143-37.93E,211,2.381,
749,2023/1/20,12:28,42-10.82N,143-37.69E,212,2.4,
750,2023/1/20,12:29,42-10.53N,143-37.46E,211,2.408,
751,2023/1/20,12:30,42-10.24N,143-37.22E,211,2.506,
752,2023/1/20,12:31,42-09.94N,143-36.99E,211,2.762,
753,2023/1/20,12:32,42-09.69N,143-36.78E,210,2.912,
754,2023/1/20,12:33,42-09.40N,143-36.55E,211,2.98,
755,2023/1/20,12:34,42-09.11N,143-36.32E,210,3.053,
756,2023/1/20,12:35,42-08.82N,143-36.09E,210,3.047,
757,2023/1/20,12:36,42-08.53N,143-35.85E,211,2.991,
758,2023/1/20,12:37,42-08.20N,143-35.58E,211,2.943,
759,2023/1/20,12:38,42-07.91N,143-35.35E,210,2.914,
760,2023/1/20,12:39,42-07.63N,143-35.12E,211,2.886,
761,2023/1/20,12:40,42-07.38N,143-34.92E,210,2.867,
762,2023/1/20,12:41,42-07.08N,143-34.68E,210,2.853,
763,2023/1/20,12:42,42-06.80N,143-34.45E,210,2.852,
764,2023/1/20,12:43,42-06.51N,143-34.21E,210,2.879,
765,2023/1/20,12:44,42-06.22N,143-33.98E,211,2.903,
766,2023/1/20,12:45,42-05.94N,143-33.75E,210,2.916,
767,2023/1/20,12:46,42-05.64N,143-33.51E,210,2.946,
768,2023/1/20,12:47,42-05.36N,143-33.28E,211,2.979,
769,2023/1/20,12:48,42-05.08N,143-33.05E,210,3.014,
770,2023/1/20,12:49,42-04.79N,143-32.82E,210,3.043,
771,2023/1/20,12:50,42-04.51N,143-32.60E,210,3.01,
772,2023/1/20,12:51,42-04.21N,143-32.37E,210,2.943,
773,2023/1/20,12:52,42-03.93N,143-32.15E,210,2.943,
774,2023/1/20,12:53,42-03.64N,143-31.91E,210,2.961,
775,2023/1/20,12:54,42-03.35N,143-31.68E,210,2.983,
776,2023/1/20,12:55,42-03.07N,143-31.46E,210,2.987,
777,2023/1/20,12:56,42-02.78N,143-31.22E,211,2.969,
778,2023/1/20,12:57,42-02.49N,143-30.98E,211,2.939,
779,2023/1/20,12:58,42-02.19N,143-30.74E,210,2.963,
780,2023/1/20,12:59,42-01.92N,143-30.53E,209,2.958,
781,2023/1/20,13:00,42-01.63N,143-30.30E,210,2.929,
782,2023/1/20,13:01,42-01.34N,143-30.07E,210,2.945,
783,2023/1/20,13:02,42-01.07N,143-29.85E,210,2.928,
784,2023/1/20,13:03,42-00.78N,143-29.62E,210,2.922,
785,2023/1/20,13:04,42-00.50N,143-29.39E,210,2.9,
786,2023/1/20,13:05,42-00.22N,143-29.16E,211,2.907,
787,2023/1/20,13:06,41-59.93N,143-28.93E,211,2.907,
788,2023/1/20,13:07,41-59.65N,143-28.70E,211,2.915,
789,2023/1/20,13:08,41-59.37N,143-28.47E,211,2.93,
790,2023/1/20,13:09,41-59.09N,143-28.24E,211,2.921,
791,2023/1/20,13:10,41-58.81N,143-28.00E,211,2.919,
792,2023/1/20,13:11,41-58.52N,143-27.77E,211,2.945,
793,2023/1/20,13:12,41-58.25N,143-27.54E,211,2.981,
794,2023/1/20,13:13,41-57.95N,143-27.30E,211,2.994,
795,2023/1/20,13:14,41-57.69N,143-27.08E,211,2.998,
796,2023/1/20,13:15,41-57.41N,143-26.84E,211,3.008,
797,2023/1/20,13:16,41-57.12N,143-26.61E,211,3.033,
798,2023/1/20,13:17,41-56.85N,143-26.39E,211,3.038,
799,2023/1/20,13:18,41-56.56N,143-26.15E,211,3.041,
800,2023/1/20,13:19,41-56.29N,143-25.93E,211,3.044,
801,2023/1/20,13:20,41-56.01N,143-25.70E,211,3.042,
802,2023/1/20,13:21,41-55.73N,143-25.47E,211,3.041,
803,2023/1/20,13:22,41-55.44N,143-25.24E,211,3.058,
804,2023/1/20,13:23,41-55.17N,143-25.01E,211,3.054,
805,2023/1/20,13:24,41-54.89N,143-24.79E,211,3.061,
806,2023/1/20,13:25,41-54.61N,143-24.56E,211,3.062,
807,2023/1/20,13:26,41-54.33N,143-24.33E,211,3.04,
808,2023/1/20,13:27,41-54.04N,143-24.10E,211,3.009,
809,2023/1/20,13:28,41-53.72N,143-23.84E,211,3.019,
810,2023/1/20,13:29,41-53.47N,143-23.63E,211,3.024,
811,2023/1/20,13:30,41-53.18N,143-23.40E,211,3.026,
812,2023/1/20,13:31,41-52.92N,143-23.19E,211,3.024,
813,2023/1/20,13:32,41-52.67N,143-22.98E,211,3.03,
814,2023/1/20,13:33,41-52.39N,143-22.74E,214,3.043,
815,2023/1/20,13:34,41-52.13N,143-22.46E,219,3.063,
816,2023/1/20,13:35,41-51.91N,143-22.15E,231,3.077,
817,2023/1/20,13:36,41-51.77N,143-21.76E,247,3.082,
818,2023/1/20,13:37,41-51.66N,143-21.36E,250,3.076,
819,2023/1/20,13:38,41-51.57N,143-20.94E,254,3.061,
820,2023/1/20,13:39,41-51.48N,143-20.51E,254,3.056,
821,2023/1/20,13:40,41-51.39N,143-20.10E,253,3.061,
822,2023/1/20,13:41,41-51.29N,143-19.67E,253,3.084,
823,2023/1/20,13:42,41-51.20N,143-19.26E,253,3.099,
824,2023/1/20,13:43,41-51.11N,143-18.84E,253,3.111,
825,2023/1/20,13:44,41-51.01N,143-18.40E,253,3.118,
826,2023/1/20,13:45,41-50.92N,143-17.99E,254,3.104,
827,2023/1/20,13:46,41-50.82N,143-17.56E,253,3.109,
828,2023/1/20,13:47,41-50.73N,143-17.14E,253,3.115,
829,2023/1/20,13:48,41-50.64N,143-16.71E,253,3.127,
830,2023/1/20,13:49,41-50.54N,143-16.28E,253,3.13,
831,2023/1/20,13:50,41-50.44N,143-15.85E,253,3.143,
832,2023/1/20,13:51,41-50.35N,143-15.42E,254,3.149,
833,2023/1/20,13:52,41-50.26N,143-15.01E,253,3.146,
834,2023/1/20,13:53,41-50.17N,143-14.58E,253,3.151,
835,2023/1/20,13:54,41-50.07N,143-14.13E,254,3.128,
836,2023/1/20,13:55,41-49.99N,143-13.73E,254,3.121,
837,2023/1/20,13:56,41-49.90N,143-13.30E,253,3.11,
838,2023/1/20,13:57,41-49.81N,143-12.88E,254,3.117,
839,2023/1/20,13:58,41-49.71N,143-12.46E,253,3.114,
840,2023/1/20,13:59,41-49.62N,143-12.01E,253,3.118,
841,2023/1/20,14:00,41-49.52N,143-11.60E,253,3.107,
842,2023/1/20,14:01,41-49.43N,143-11.17E,253,3.083,
843,2023/1/20,14:02,41-49.33N,143-10.74E,253,3.065,
844,2023/1/20,14:03,41-49.24N,143-10.32E,252,3.055,
845,2023/1/20,14:04,41-49.13N,143-09.89E,252,3.053,
846,2023/1/20,14:05,41-49.04N,143-09.47E,252,3.06,
847,2023/1/20,14:06,41-48.94N,143-09.03E,252,3.083,
848,2023/1/20,14:07,41-48.83N,143-08.60E,252,3.088,
849,2023/1/20,14:08,41-48.74N,143-08.19E,252,3.098,
850,2023/1/20,14:09,41-48.64N,143-07.75E,252,3.104,
851,2023/1/20,14:10,41-48.54N,143-07.34E,252,3.116,
852,2023/1/20,14:11,41-48.44N,143-06.90E,252,3.128,
853,2023/1/20,14:12,41-48.35N,143-06.49E,253,3.146,
854,2023/1/20,14:13,41-48.26N,143-06.06E,255,3.168,
855,2023/1/20,14:14,41-48.18N,143-05.62E,257,3.196,
856,2023/1/20,14:15,41-48.11N,143-05.17E,258,3.205,
857,2023/1/20,14:16,41-48.05N,143-04.74E,258,3.192,
858,2023/1/20,14:17,41-47.99N,143-04.31E,259,3.213,
859,2023/1/20,14:18,41-47.92N,143-03.85E,259,3.256,
860,2023/1/20,14:19,41-47.86N,143-03.41E,259,3.26,
861,2023/1/20,14:20,41-47.80N,143-02.97E,259,3.264,
862,2023/1/20,14:21,41-47.73N,143-02.51E,258,3.27,
863,2023/1/20,14:22,41-47.67N,143-02.08E,259,3.271,
864,2023/1/20,14:23,41-47.61N,143-01.66E,259,3.291,
865,2023/1/20,14:24,41-47.55N,143-01.22E,259,3.295,
866,2023/1/20,14:25,41-47.49N,143-00.79E,259,3.297,
867,2023/1/20,14:26,41-47.42N,143-00.30E,259,3.305,
868,2023/1/20,14:27,41-47.36N,142-59.85E,259,3.316,
869,2023/1/20,14:28,41-47.30N,142-59.41E,259,3.328,
870,2023/1/20,14:29,41-47.23N,142-58.97E,259,3.353,
871,2023/1/20,14:30,41-47.18N,142-58.58E,258,3.356,
872,2023/1/20,14:31,41-47.12N,142-58.16E,259,3.372,
873,2023/1/20,14:32,41-47.05N,142-57.73E,259,3.38,
874,2023/1/20,14:33,41-46.99N,142-57.28E,259,3.385,
875,2023/1/20,14:34,41-46.92N,142-56.79E,259,3.392,
876,2023/1/20,14:35,41-46.86N,142-56.35E,259,3.425,
877,2023/1/20,14:36,41-46.80N,142-55.91E,259,3.449,
878,2023/1/20,14:37,41-46.74N,142-55.46E,259,3.456,
879,2023/1/20,14:38,41-46.68N,142-55.03E,259,3.483,
880,2023/1/20,14:39,41-46.61N,142-54.61E,255,3.487,
881,2023/1/20,14:40,41-46.52N,142-54.25E,253,3.466,
882,2023/1/20,14:41,41-46.43N,142-53.82E,253,3.459,
883,2023/1/20,14:42,41-46.33N,142-53.39E,253,3.471,
884,2023/1/20,14:43,41-46.24N,142-52.97E,253,3.507,
885,2023/1/20,14:44,41-46.13N,142-52.49E,253,3.554,
886,2023/1/20,14:45,41-46.05N,142-52.11E,253,3.603,
887,2023/1/20,14:46,41-45.95N,142-51.70E,253,3.644,
888,2023/1/20,14:47,41-45.86N,142-51.28E,252,3.644,
889,2023/1/20,14:48,41-45.76N,142-50.86E,252,3.627,
890,2023/1/20,14:49,41-45.66N,142-50.43E,252,3.628,
891,2023/1/20,14:50,41-45.55N,142-50.00E,252,3.626,
892,2023/1/20,14:51,41-45.46N,142-49.60E,252,3.719,
893,2023/1/20,14:52,41-45.36N,142-49.17E,252,3.829,
894,2023/1/20,14:53,41-45.27N,142-48.75E,253,3.918,
895,2023/1/20,14:54,41-45.17N,142-48.34E,252,3.993,
896,2023/1/20,14:55,41-45.07N,142-47.93E,253,4.034,
897,2023/1/20,14:56,41-44.98N,142-47.51E,253,4.042,
898,2023/1/20,14:57,41-44.88N,142-47.09E,250,4.046,
899,2023/1/20,14:58,41-44.77N,142-46.69E,250,4.027,
900,2023/1/20,14:59,41-44.66N,142-46.28E,250,4.014,
901,2023/1/20,15:00,41-44.55N,142-45.88E,250,4.051,
902,2023/1/20,15:01,41-44.44N,142-45.47E,249,4.36,
903,2023/1/20,15:02,41-44.33N,142-45.06E,248,5.489,
904,2023/1/20,15:03,41-44.21N,142-44.67E,248,5.872,
905,2023/1/20,15:04,41-44.09N,142-44.26E,247,5.879,
906,2023/1/20,15:05,41-43.96N,142-43.85E,245,5.842,
907,2023/1/20,15:06,41-43.83N,142-43.47E,245,5.436,
908,2023/1/20,15:07,41-43.70N,142-43.07E,246,5.317,
909,2023/1/20,15:08,41-43.57N,142-42.66E,246,5.268,
910,2023/1/20,15:09,41-43.44N,142-42.27E,246,5.238,
911,2023/1/20,15:10,41-43.31N,142-41.88E,246,5.22,
912,2023/1/20,15:11,41-43.18N,142-41.50E,246,5.225,
913,2023/1/20,15:12,41-43.05N,142-41.09E,246,5.272,
914,2023/1/20,15:13,41-42.93N,142-40.71E,246,5.328,
915,2023/1/20,15:14,41-42.80N,142-40.30E,246,5.489,
916,2023/1/20,15:15,41-42.67N,142-39.93E,246,5.508,
917,2023/1/20,15:16,41-42.55N,142-39.54E,246,5.567,
918,2023/1/20,15:17,41-42.41N,142-39.13E,245,5.7,
919,2023/1/20,15:18,41-42.28N,142-38.77E,244,5.906,
920,2023/1/20,15:19,41-42.14N,142-38.39E,242,5.943,
921,2023/1/20,15:20,41-42.00N,142-38.02E,242,5.668,
922,2023/1/20,15:21,41-41.86N,142-37.64E,242,5.487,
923,2023/1/20,15:22,41-41.70N,142-37.24E,243,5.35,
924,2023/1/20,15:23,41-41.57N,142-36.89E,242,5.242,
925,2023/1/20,15:24,41-41.41N,142-36.49E,242,5.165,
926,2023/1/20,15:25,41-41.27N,142-36.13E,242,4.932,
927,2023/1/20,15:26,41-41.13N,142-35.75E,242,4.683,
928,2023/1/20,15:27,41-40.98N,142-35.37E,242,4.502,
929,2023/1/20,15:28,41-40.84N,142-35.00E,242,4.367,
930,2023/1/20,15:29,41-40.69N,142-34.62E,242,4.287,
931,2023/1/20,15:30,41-40.55N,142-34.26E,242,4.227,
932,2023/1/20,15:31,41-40.40N,142-33.88E,242,4.177,
933,2023/1/20,15:32,41-40.25N,142-33.50E,242,4.172,
934,2023/1/20,15:33,41-40.10N,142-33.12E,242,4.19,
935,2023/1/20,15:34,41-39.96N,142-32.74E,243,4.228,
936,2023/1/20,15:35,41-39.82N,142-32.38E,242,4.267,
937,2023/1/20,15:36,41-39.68N,142-32.00E,243,4.275,
938,2023/1/20,15:37,41-39.54N,142-31.62E,242,4.293,
939,2023/1/20,15:38,41-39.40N,142-31.26E,242,4.308,
940,2023/1/20,15:39,41-39.26N,142-30.88E,242,4.334,
941,2023/1/20,15:40,41-39.12N,142-30.52E,242,4.343,
942,2023/1/20,15:41,41-38.98N,142-30.16E,243,4.338,
943,2023/1/20,15:42,41-38.84N,142-29.79E,242,4.329,
944,2023/1/20,15:43,41-38.70N,142-29.44E,242,4.31,
945,2023/1/20,15:44,41-38.57N,142-29.09E,242,4.298,
946,2023/1/20,15:45,41-38.43N,142-28.74E,242,4.29,
947,2023/1/20,15:46,41-38.30N,142-28.39E,242,4.292,
948,2023/1/20,15:47,41-38.17N,142-28.05E,242,4.296,
949,2023/1/20,15:48,41-38.05N,142-27.72E,243,4.304,
950,2023/1/20,15:49,41-37.91N,142-27.39E,242,4.315,
951,2023/1/20,15:50,41-37.78N,142-27.04E,243,4.32,
952,2023/1/20,15:51,41-37.66N,142-26.72E,243,4.327,
953,2023/1/20,15:52,41-37.54N,142-26.38E,243,4.33,
954,2023/1/20,15:53,41-37.41N,142-26.04E,243,4.339,
955,2023/1/20,15:54,41-37.29N,142-25.71E,243,4.338,
956,2023/1/20,15:55,41-37.16N,142-25.37E,243,4.343,
957,2023/1/20,15:56,41-37.04N,142-25.03E,243,4.354,
958,2023/1/20,15:57,41-36.91N,142-24.69E,243,4.357,
959,2023/1/20,15:58,41-36.79N,142-24.35E,245,4.363,
960,2023/1/20,15:59,41-36.66N,142-23.99E,243,4.373,
961,2023/1/20,16:00,41-36.54N,142-23.67E,244,4.371,
962,2023/1/20,16:01,41-36.42N,142-23.32E,244,4.383,
963,2023/1/20,16:02,41-36.29N,142-22.97E,244,4.385,
964,2023/1/20,16:03,41-36.18N,142-22.65E,244,4.393,
965,2023/1/20,16:04,41-36.05N,142-22.30E,244,4.384,
966,2023/1/20,16:05,41-35.94N,142-21.97E,245,4.376,
967,2023/1/20,16:06,41-35.82N,142-21.64E,245,4.362,
968,2023/1/20,16:07,41-35.69N,142-21.28E,245,4.359,
969,2023/1/20,16:08,41-35.58N,142-20.96E,244,4.362,
970,2023/1/20,16:09,41-35.46N,142-20.62E,244,4.355,
971,2023/1/20,16:10,41-35.34N,142-20.27E,245,4.345,
972,2023/1/20,16:11,41-35.23N,142-19.95E,245,4.329,
973,2023/1/20,16:12,41-35.11N,142-19.60E,245,4.316,
974,2023/1/20,16:13,41-34.99N,142-19.26E,245,4.312,
975,2023/1/20,16:14,41-34.87N,142-18.94E,244,4.306,
976,2023/1/20,16:15,41-34.76N,142-18.60E,244,4.304,
977,2023/1/20,16:16,41-34.64N,142-18.26E,245,4.28,
978,2023/1/20,16:17,41-34.52N,142-17.91E,244,4.253,
979,2023/1/20,16:18,41-34.40N,142-17.58E,245,4.232,
980,2023/1/20,16:19,41-34.28N,142-17.23E,245,4.229,
981,2023/1/20,16:20,41-34.17N,142-16.90E,243,4.377,
982,2023/1/20,16:21,41-34.04N,142-16.57E,242,6.642,
983,2023/1/20,16:22,41-33.91N,142-16.24E,242,7.652,
984,2023/1/20,16:23,41-33.78N,142-15.90E,242,8.329,
985,2023/1/20,16:24,41-33.65N,142-15.58E,243,8.611,
986,2023/1/20,16:25,41-33.53N,142-15.25E,242,8.788,
987,2023/1/20,16:26,41-33.40N,142-14.92E,242,8.903,
988,2023/1/20,16:27,41-33.26N,142-14.56E,243,9.071,
989,2023/1/20,16:28,41-33.14N,142-14.26E,242,9.206,
990,2023/1/20,16:29,41-33.02N,142-13.92E,243,9.344,
991,2023/1/20,16:30,41-32.89N,142-13.59E,243,9.419,
992,2023/1/20,16:31,41-32.76N,142-13.26E,243,9.478,
993,2023/1/20,16:32,41-32.64N,142-12.93E,243,9.572,
994,2023/1/20,16:33,41-32.51N,142-12.60E,243,9.625,
995,2023/1/20,16:34,41-32.39N,142-12.27E,243,9.7,
996,2023/1/20,16:35,41-32.26N,142-11.93E,243,9.749,
997,2023/1/20,16:36,41-32.14N,142-11.60E,243,9.786,
998,2023/1/20,16:37,41-32.01N,142-11.26E,243,9.822,
999,2023/1/20,16:38,41-31.87N,142-10.91E,243,9.84,
1000,2023/1/20,16:39,41-31.75N,142-10.58E,242,9.863,
1001,2023/1/20,16:40,41-31.61N,142-10.23E,243,9.841,
1002,2023/1/20,16:41,41-31.48N,142-09.88E,242,9.834,
1003,2023/1/20,16:42,41-31.35N,142-09.54E,243,9.852,
1004,2023/1/20,16:43,41-31.22N,142-09.20E,243,9.858,
1005,2023/1/20,16:44,41-31.10N,142-08.86E,243,9.825,
1006,2023/1/20,16:45,41-30.97N,142-08.51E,243,9.803,
1007,2023/1/20,16:46,41-30.84N,142-08.18E,243,9.758,
1008,2023/1/20,16:47,41-30.71N,142-07.83E,243,9.633,
1009,2023/1/20,16:48,41-30.58N,142-07.48E,243,9.339,
1010,2023/1/20,16:49,41-30.46N,142-07.15E,243,9.29,
1011,2023/1/20,16:50,41-30.33N,142-06.81E,242,9.32,
1012,2023/1/20,16:51,41-30.20N,142-06.46E,243,9.37,
1013,2023/1/20,16:52,41-30.07N,142-06.12E,243,9.407,
1014,2023/1/20,16:53,41-29.94N,142-05.78E,243,9.429,
1015,2023/1/20,16:54,41-29.81N,142-05.44E,242,9.388,
1016,2023/1/20,16:55,41-29.68N,142-05.09E,243,9.239,
1017,2023/1/20,16:56,41-29.55N,142-04.75E,242,9.022,
1018,2023/1/20,16:57,41-29.41N,142-04.39E,243,8.838,
1019,2023/1/20,16:58,41-29.28N,142-04.05E,242,8.702,
1020,2023/1/20,16:59,41-29.15N,142-03.70E,243,8.621,
1021,2023/1/20,17:00,41-29.01N,142-03.35E,242,8.545,
1022,2023/1/20,17:01,41-28.88N,142-03.00E,242,8.469,
1023,2023/1/20,17:02,41-28.74N,142-02.65E,241,8.417,
1024,2023/1/20,17:03,41-28.60N,142-02.30E,242,8.391,
1025,2023/1/20,17:04,41-28.46N,142-01.96E,242,8.289,